This is the latest recevied weather packets stored in our database for station/object K4LEN. If no packets are shown the sender has not sent any weather packets the latest 1 day(s).
| Time | Temp. | Humidity | Pressure | Rain* | Wind** | Luminosity | Snow |
|---|---|---|---|---|---|---|---|
| 1778095921 | 15° C | 99% | 1016.2 hPa | 0 mm | - | 91 W/m² | - |
| 1778094719 | 15° C | 99% | 1015.7 hPa | 0 mm | - | 130 W/m² | - |
| 1778093518 | 14.44° C | 99% | 1015.5 hPa | 0 mm | - | 144 W/m² | - |
| 1778092913 | 14.44° C | 99% | 1016.1 hPa | 3.05 mm | - | 144 W/m² | - |
| 1778092311 | 15° C | 99% | 1016.3 hPa | 18.54 mm | - | 94 W/m² | - |
| 1778088700 | 15.56° C | 99% | 1016 hPa | 3.05 mm | - | 29 W/m² | - |
| 1778088099 | 15.56° C | 99% | 1015.3 hPa | 4.83 mm | - | 114 W/m² | - |
| 1778087494 | 15° C | 99% | 1014.9 hPa | 1.27 mm | - | 45 W/m² | - |
| 1778086288 | 15° C | 99% | 1015.9 hPa | 0 mm | - | 22 W/m² | - |
| 1778085084 | 15° C | 99% | 1016 hPa | 3.05 mm | - | 77 W/m² | - |
| 1778084483 | 15.56° C | 99% | 1016.1 hPa | 3.05 mm | - | 43 W/m² | - |
| 1778083281 | 18.89° C | 98% | 1015.9 hPa | 0 mm | - | 32 W/m² | - |
| 1778081247 | 18.89° C | 99% | 1015.5 hPa | 0 mm | - | 232 W/m² | - |
| 1778075215 | 18.33° C | 99% | 1013.6 hPa | 0 mm | - | 78 W/m² | - |
| 1778073409 | 17.78° C | 99% | 1013.5 hPa | 1.27 mm | - | 94 W/m² | - |
| 1778069184 | 17.78° C | 99% | 1014.4 hPa | 28.7 mm | - | 1 W/m² | - |
| 1778067974 | 17.78° C | 99% | 1013.8 hPa | 6.1 mm | - | 0 W/m² | - |
| 1778067370 | 17.78° C | 99% | 1013.2 hPa | 4.32 mm | - | 8 W/m² | - |
| 1778065559 | 18.89° C | 99% | 1012.8 hPa | 13.72 mm | - | 9 W/m² | - |
| 1778063748 | 18.89° C | 99% | 1012.5 hPa | 6.1 mm | - | 8 W/m² | - |
| 1778058314 | 20.56° C | 90% | 1011.4 hPa | 0 mm | - | 9 W/m² | - |
| 1778057713 | 20.56° C | 87% | 1011.4 hPa | 0 mm | - | 10 W/m² | - |
| 1778057112 | 20.56° C | 87% | 1011.7 hPa | 0 mm | - | 10 W/m² | - |
| 1778055311 | 20.56° C | 85% | 1011.5 hPa | 0 mm | - | 6 W/m² | - |
| 1778054711 | 20.56° C | 85% | 1011.7 hPa | 0 mm | - | 7 W/m² | - |
* Rain latest hour (hover to see other rain measurements)
** Current wind speed in m/s (hover to see current wind gust speed)